TimeCST,TemperatureF,Dew PointF,Humidity,Sea Level PressureIn,VisibilityMPH,Wind Direction,Wind SpeedMPH,Gust SpeedMPH,PrecipitationIn,Events,Conditions,WindDirDegrees,DateUTC
12:43 AM,42.8,39.2,87,29.93,6.0,North,3.5,-,N/A,,Mostly Cloudy,350,2012-12-08 06:43:00
12:53 AM,42.1,39.0,89,29.94,6.0,NNW,3.5,-,N/A,,Overcast,340,2012-12-08 06:53:00
1:34 AM,41.0,37.4,87,29.93,6.0,North,3.5,-,N/A,,Scattered Clouds,350,2012-12-08 07:34:00
1:53 AM,39.0,37.0,93,29.94,5.0,Calm,Calm,-,N/A,,Clear,0,2012-12-08 07:53:00
2:39 AM,39.2,37.4,93,29.94,4.0,North,5.8,-,N/A,,Scattered Clouds,360,2012-12-08 08:39:00
2:53 AM,39.9,39.0,97,29.95,2.5,North,8.1,-,N/A,,Mostly Cloudy,10,2012-12-08 08:53:00
3:15 AM,39.2,39.2,100,29.94,3.0,North,5.8,-,N/A,,Overcast,350,2012-12-08 09:15:00
3:53 AM,37.9,37.0,97,29.94,2.5,NNE,3.5,-,N/A,,Partly Cloudy,20,2012-12-08 09:53:00
4:00 AM,37.4,35.6,93,29.93,1.2,Calm,Calm,-,N/A,,Scattered Clouds,0,2012-12-08 10:00:00
4:05 AM,37.4,37.4,100,29.94,1.8,NNW,4.6,-,N/A,,Mostly Cloudy,340,2012-12-08 10:05:00
4:10 AM,37.4,37.4,100,29.94,0.8,North,3.5,-,N/A,,Mist,360,2012-12-08 10:10:00
4:18 AM,37.4,37.4,100,29.94,0.2,NNW,3.5,-,N/A,Fog,Fog,340,2012-12-08 10:18:00
5:53 AM,37.9,37.9,100,29.96,0.2,North,5.8,-,N/A,Fog,Fog,360,2012-12-08 11:53:00
6:12 AM,37.4,37.4,100,29.95,1.0,NNE,8.1,-,N/A,,Mist,20,2012-12-08 12:12:00
6:17 AM,37.4,37.4,100,29.96,2.0,North,8.1,-,N/A,,Overcast,10,2012-12-08 12:17:00
6:20 AM,37.4,37.4,100,29.95,3.0,North,8.1,-,N/A,,Overcast,10,2012-12-08 12:20:00
6:53 AM,37.0,36.0,96,29.98,3.0,NE,4.6,-,N/A,,Overcast,40,2012-12-08 12:53:00
7:31 AM,37.4,35.6,93,29.98,2.5,ENE,3.5,-,N/A,,Overcast,60,2012-12-08 13:31:00
7:51 AM,37.4,35.6,93,29.97,2.0,ENE,3.5,-,N/A,,Overcast,60,2012-12-08 13:51:00
7:53 AM,37.9,36.0,93,29.99,2.0,ENE,4.6,-,N/A,,Overcast,60,2012-12-08 13:53:00
8:53 AM,37.9,35.1,89,29.99,3.0,NE,11.5,-,N/A,,Overcast,50,2012-12-08 14:53:00
9:53 AM,39.9,36.0,86,29.99,3.0,East,9.2,-,N/A,,Mostly Cloudy,100,2012-12-08 15:53:00
10:03 AM,39.2,35.6,87,29.99,4.0,East,8.1,-,N/A,,Mostly Cloudy,90,2012-12-08 16:03:00
10:53 AM,39.9,35.1,83,30.00,4.0,East,11.5,-,N/A,,Haze,90,2012-12-08 16:53:00
11:53 AM,39.9,34.0,79,29.96,5.0,East,10.4,-,N/A,,Haze,100,2012-12-08 17:53:00
12:53 PM,41.0,34.0,76,29.94,6.0,ESE,6.9,-,N/A,,Haze,120,2012-12-08 18:53:00
1:53 PM,43.0,35.1,74,29.93,6.0,East,6.9,-,N/A,,Haze,80,2012-12-08 19:53:00
2:29 PM,42.8,35.6,76,29.91,6.0,East,5.8,-,N/A,,Haze,80,2012-12-08 20:29:00
2:53 PM,43.0,35.1,74,29.91,6.0,East,8.1,-,N/A,,Haze,90,2012-12-08 20:53:00
3:10 PM,42.8,33.8,70,29.90,6.0,ENE,8.1,-,N/A,,Haze,70,2012-12-08 21:10:00
3:53 PM,41.0,34.0,76,29.92,6.0,East,10.4,-,N/A,,Haze,80,2012-12-08 21:53:00
4:53 PM,41.0,35.1,79,29.89,6.0,East,6.9,-,N/A,,Haze,90,2012-12-08 22:53:00
5:00 PM,41.0,35.6,81,29.88,6.0,East,5.8,-,N/A,,Haze,90,2012-12-08 23:00:00
5:53 PM,41.0,34.0,76,29.89,8.0,East,8.1,-,N/A,,Overcast,90,2012-12-08 23:53:00
6:05 PM,41.0,33.8,76,29.87,8.0,East,6.9,-,N/A,,Overcast,80,2012-12-09 00:05:00
6:15 PM,41.0,33.8,76,29.87,8.0,East,8.1,-,N/A,,Overcast,100,2012-12-09 00:15:00
6:53 PM,39.9,36.0,86,29.88,4.0,East,5.8,-,N/A,,Overcast,100,2012-12-09 00:53:00
7:03 PM,39.2,35.6,87,29.87,2.5,East,5.8,-,0.00,Rain,Light Rain,100,2012-12-09 01:03:00
7:14 PM,39.2,37.4,93,29.87,3.0,ESE,5.8,-,0.00,,Overcast,110,2012-12-09 01:14:00
7:24 PM,39.2,37.4,93,29.86,3.0,ESE,6.9,-,0.00,,Overcast,110,2012-12-09 01:24:00
7:53 PM,39.9,37.9,93,29.90,3.0,ENE,5.8,-,0.00,,Overcast,70,2012-12-09 01:53:00
8:04 PM,39.2,37.4,93,29.88,2.0,ENE,4.6,-,0.00,Rain,Light Rain,70,2012-12-09 02:04:00
8:14 PM,39.2,37.4,93,29.88,2.0,NE,3.5,-,0.00,Rain,Light Rain,40,2012-12-09 02:14:00
8:19 PM,39.2,37.4,93,29.89,1.8,Calm,Calm,-,0.01,Rain,Light Rain,0,2012-12-09 02:19:00
8:53 PM,39.9,39.9,100,29.89,2.0,East,4.6,-,0.02,Rain,Light Rain,80,2012-12-09 02:53:00
9:33 PM,39.2,-9999,N/A,29.86,1.8,East,6.9,-,0.01,,Overcast,90,2012-12-09 03:33:00
9:41 PM,39.2,-9999,N/A,29.86,2.5,East,4.6,-,0.01,,Overcast,90,2012-12-09 03:41:00
10:02 PM,39.2,-9999,N/A,29.87,3.0,East,4.6,-,N/A,,Overcast,90,2012-12-09 04:02:00
10:53 PM,39.0,-9999,N/A,29.88,5.0,East,8.1,-,N/A,,Haze,100,2012-12-09 04:53:00
11:53 PM,39.9,-9999,N/A,29.88,5.0,East,5.8,-,N/A,,Haze,90,2012-12-09 05:53:00